Weather History for KSDB - October, 2012

Change the Weather History Date:

Saturday, October 6, 2012

  Actual Average Record
Temperature  
Mean Temperature 61 °F 63 °F  
Max Temperature 72 °F 71 °F 92 °F (1987)
Min Temperature 49 °F 54 °F 36 °F (1967)
Degree Days  
Heating Degree Days 4 5  
Month to date heating degree days 8 28  
Since 1 July heating degree days 13 106  
Cooling Degree Days 0 3  
Month to date cooling degree days 44 19  
Year to date cooling degree days 1325 965  
Growing Degree Days 10 (Base 50)    
Moisture  
Dew Point 41 °F    
Average Humidity 59    
Maximum Humidity 84    
Minimum Humidity 33    
Precipitation  
Precipitation 0.00 in 0.01 in 1.14 in (1945)
Month to date precipitation 0.00 0.07  
Year to date precipitation 4.34 8.77  
Since 1 July precipitation 0.07 0.29  
Sea Level Pressure  
Sea Level Pressure 29.98 in    
Wind  
Wind Speed 15 mph (North)    
Max Wind Speed 31 mph    
Max Gust Speed 72 mph    
Visibility 10 miles    
Events      
T = Trace of Precipitation, MM = Missing Value Source: NWS Daily Summary

Daily Weather History Graph

Daily Weather History Graph

Search for Another Location

Airport or City:

Trip Planner

Search our weather history database for the weather conditions in past years. The results will help you decide how hot, cold, wet, or windy it might be!

Date:

Astronomy

Oct. 06, 2012 Rise Set
Actual Time 6:53 AM PDT 6:31 PM PDT
Civil Twilight 6:28 AM PDT 6:56 PM PDT
Nautical Twilight 5:59 AM PDT 7:25 PM PDT
Astronomical Twilight 5:30 AM PDT 7:54 PM PDT
Moon 11:01 PM PDT (10/6) 12:41 PM PDT (10/6)
Length of Visible Light 12h 27m
Length of Day
11h 37m
Waning Gibbous, 64% of the Moon is Illuminated
Oct 6
Waning Gibbous
Oct 8
Last Quarter
Oct 15
New
Oct 21
First Quarter
Oct 29
Full

Hourly Weather History & Observations

Time (PDT) Temp. Dew Point Humidity Pressure Visibility Wind Dir Wind Speed Gust Speed Precip Events Conditions
12:48 AM 55.9 °F 39.9 °F 55% 30.00 in 10.0 mi North 20.7 mph 31.1 mph N/A   Clear
1:48 AM 55.9 °F 42.1 °F 60% 30.00 in 10.0 mi NNW 26.5 mph 35.7 mph N/A   Clear
2:48 AM 54.0 °F 44.1 °F 69% 30.01 in 10.0 mi North 16.1 mph 21.9 mph N/A   Clear
3:36 AM 53.6 °F 44.6 °F 72% 30.11 in 10.0 mi North 10.4 mph 72.5 mph N/A   Squalls
3:48 AM 53.6 °F 44.6 °F 72% 29.99 in 10.0 mi NNE 8.1 mph - N/A   Clear
4:48 AM 50.0 °F 44.1 °F 80% 30.00 in 10.0 mi North 9.2 mph 19.6 mph N/A   Clear
5:48 AM 51.1 °F 46.0 °F 83% 29.99 in 10.0 mi North 20.7 mph 26.5 mph N/A   Clear
6:48 AM 53.1 °F 44.1 °F 71% 30.00 in 10.0 mi North 19.6 mph 28.8 mph N/A   Clear
7:48 AM 52.0 °F 45.0 °F 77% 30.01 in 10.0 mi North 12.7 mph 20.7 mph N/A   Clear
8:48 AM 57.9 °F 42.1 °F 56% 30.01 in 10.0 mi NNW 19.6 mph 31.1 mph N/A   Clear
9:48 AM 60.1 °F 43.0 °F 53% 30.01 in 10.0 mi NNW 21.9 mph 31.1 mph N/A   Clear
10:48 AM 63.0 °F 42.1 °F 46% 30.00 in 10.0 mi NNW 17.3 mph - N/A   Clear
11:48 AM 66.0 °F 39.0 °F 37% 30.00 in 10.0 mi NNW 16.1 mph - N/A   Clear
12:48 PM 68.0 °F 39.9 °F 36% 29.98 in 10.0 mi NNW 17.3 mph - N/A   Clear
1:48 PM 69.1 °F 39.9 °F 35% 29.95 in 10.0 mi North 6.9 mph 19.6 mph N/A   Clear
2:48 PM 69.1 °F 39.9 °F 35% 29.94 in 10.0 mi Variable 4.6 mph 17.3 mph N/A   Clear
3:48 PM 66.9 °F 39.9 °F 37% 29.94 in 10.0 mi North 8.1 mph 18.4 mph N/A   Clear
4:48 PM 64.0 °F 41.0 °F 43% 29.94 in 10.0 mi NNW 13.8 mph 23.0 mph N/A   Clear
5:48 PM 62.1 °F 41.0 °F 46% 29.94 in 10.0 mi North 10.4 mph 21.9 mph N/A   Clear
6:48 PM 60.1 °F 39.0 °F 46% 29.94 in 10.0 mi NNW 24.2 mph 29.9 mph N/A   Clear
7:48 PM 60.1 °F 36.0 °F 41% 29.95 in 10.0 mi NNW 18.4 mph - N/A   Clear
8:48 PM 60.1 °F 37.0 °F 42% 29.93 in 10.0 mi NNW 17.3 mph 25.3 mph N/A   Clear
9:48 PM 59.0 °F 37.9 °F 46% 29.93 in 10.0 mi NNW 19.6 mph 28.8 mph N/A   Clear
10:48 PM 57.0 °F 41.0 °F 55% 29.94 in 10.0 mi North 10.4 mph 19.6 mph N/A   Clear
11:48 PM 55.9 °F 42.1 °F 60% 29.92 in 10.0 mi North 10.4 mph 20.7 mph N/A   Clear